Location: Praha
(50.0830°N, 14.4670°E)
Time: 05:43:58
(UTC+01:00)

ISS - Pass Details

Date: 21 November 2025
Orbit: 416 x 421 km, 51.6° (Epoch: 07 December)

Event Time Altitude Azimuth Distance (km) Brightness Sun altitude
Rises 18:14:10 0° 273° (W) 2,367 1.6 -19.4°
Reaches altitude 10° 18:16:17 10° 276° (W) 1,502 0.2 -19.7°
Enters shadow 18:19:33 64° 348° (NNW) 468 -3.6 -20.2°
